KD0RIH Weather Reports


Display with metric or nautical units.
time (UTC)temp
F
wind
direction
speed
MPH
gust
MPH
rain 1hr
in
rain 24hr
in
rain mn
in
humidity
%
barometer
mb
20260506033408 52 314 0.0 0.0 0.00 0.04 0.04 68 1013.1
20260506032905 52 314 0.0 0.0 0.00 0.04 0.04 66 1012.9
20260506032401 52 314 0.0 0.0 0.00 0.04 0.04 66 1012.9
20260506031858 52 314 0.0 0.0 0.00 0.04 0.04 65 1012.8
20260506031356 52 314 0.0 0.0 0.00 0.04 0.04 64 1012.8
20260506030853 52 310 0.0 0.0 0.00 0.04 0.04 64 1012.4
20260506030351 52 310 0.0 0.0 0.00 0.04 0.04 64 1012.3
20260506025848 53 310 0.0 0.0 0.00 0.04 0.04 63 1012.5
20260506025344 53 309 0.0 0.0 0.00 0.04 0.04 62 1012.5
20260506024841 53 310 0.0 0.0 0.00 0.04 0.04 62 1012.5
20260506024338 53 319 0.0 0.0 0.00 0.04 0.04 63 1012.4
20260506023834 53 318 0.0 0.0 0.00 0.04 0.04 66 1012.5
20260506023331 53 310 0.0 1.0 0.00 0.04 0.04 66 1012.3
20260506022828 53 311 0.0 0.0 0.00 0.04 0.04 70 1012.5
20260506022326 52 298 1.0 1.0 0.00 0.04 0.04 75 1012.2
20260506021824 52 300 0.0 0.0 0.00 0.04 0.04 75 1012.2
20260506021320 52 300 0.0 0.0 0.00 0.04 0.04 74 1012.3
20260506020817 52 300 0.0 0.0 0.00 0.04 0.04 73 1012.1
20260506020315 53 300 0.0 0.0 0.00 0.04 0.04 73 1012.0
20260506015813 53 300 0.0 0.0 0.00 0.04 0.04 72 1012.2
20260506015310 53 300 0.0 0.0 0.00 0.04 0.04 71 1012.1
20260506014806 53 300 0.0 0.0 0.00 0.04 0.04 71 1012.1
20260506014303 53 300 0.0 0.0 0.00 0.04 0.04 70 1011.9
20260506013800 53 300 0.0 1.0 0.00 0.04 0.04 70 1012.1
20260506013257 53 287 1.0 1.0 0.00 0.04 0.04 69 1012.1
20260506012753 53 290 0.0 0.0 0.00 0.04 0.04 70 1012.0
20260506012250 53 293 0.0 0.0 0.00 0.04 0.04 69 1011.9
20260506011748 54 270 1.0 2.0 0.00 0.04 0.04 69 1011.6
20260506011244 54 249 2.0 2.0 0.00 0.04 0.04 69 1011.7
20260506010742 54 292 1.0 1.0 0.00 0.04 0.04 68 1011.8
20260506010239 54 294 0.0 1.0 0.00 0.04 0.04 68 1011.9
20260506005737 55 288 1.0 2.0 0.00 0.04 0.04 66 1011.6
20260506005233 55 298 0.0 0.0 0.00 0.04 0.04 63 1011.6
20260506004729 55 303 0.0 0.0 0.00 0.04 0.04 59 1011.5
20260506004227 55 299 0.0 0.0 0.00 0.04 0.04 57 1011.5
20260506003723 56 299 0.0 0.0 0.00 0.04 0.04 53 1011.4
20260506003219 56 299 0.0 0.0 0.00 0.04 0.04 53 1011.1
20260506002715 56 299 0.0 0.0 0.00 0.04 0.04 52 1011.2
20260506002211 56 299 0.0 0.0 0.00 0.04 0.04 51 1011.5
20260506001707 56 299 0.0 0.0 0.00 0.04 0.04 49 1011.2
20260506001205 56 299 0.0 0.0 0.00 0.04 0.04 48 1011.2
20260506000702 56 299 0.0 0.0 0.00 0.04 0.04 47 1011.1
20260506000159 57 299 0.0 0.0 0.00 0.04 0.04 47 1011.6
20260505235657 57 299 0.0 0.0 0.00 0.04 0.04 48 1011.2
20260505235155 56 299 0.0 0.0 0.00 0.04 0.04 49 1011.5
20260505234651 56 299 0.0 0.0 0.00 0.04 0.04 47 1011.7
20260505234148 56 299 0.0 0.0 0.00 0.04 0.04 47 1011.6
20260505233645 56 299 0.0 0.0 0.00 0.04 0.04 48 1011.4
20260505233142 57 298 0.0 0.0 0.00 0.04 0.04 47 1011.2
20260505232640 58 320 0.0 0.0 0.00 0.04 0.04 45 1011.5
20260505232137 58 317 0.0 0.0 0.00 0.04 0.04 46 1011.4
20260505231634 58 316 0.0 0.0 0.00 0.04 0.04 46 1011.4
20260505231133 58 316 0.0 0.0 0.00 0.04 0.04 46 1011.2
20260505230631 58 315 0.0 0.0 0.00 0.04 0.04 44 1011.2
20260505230126 58 316 0.0 0.0 0.00 0.04 0.04 45 1011.1
20260505225623 59 314 0.0 0.0 0.00 0.04 0.04 44 1011.3
20260505225119 59 321 0.0 0.0 0.00 0.04 0.04 45 1011.2
20260505224616 59 310 0.0 0.0 0.00 0.04 0.04 43 1011.2
20260505224114 58 320 0.0 0.0 0.00 0.04 0.04 45 1011.2
20260505223611 59 311 0.0 0.0 0.00 0.04 0.04 46 1011.0
20260505223107 59 308 0.0 0.0 0.00 0.04 0.04 46 1011.2
20260505222603 59 321 0.0 0.0 0.00 0.04 0.04 47 1011.3
20260505222059 59 316 0.0 0.0 0.00 0.04 0.04 46 1011.2
20260505221557 58 317 0.0 0.0 0.00 0.04 0.04 45 1011.5
20260505221053 59 321 0.0 0.0 0.00 0.04 0.04 43 1011.3
20260505220550 59 317 0.0 0.0 0.00 0.04 0.04 44 1011.5
20260505220048 59 313 1.0 1.0 0.00 0.04 0.04 43 1011.4
20260505215546 59 338 1.0 1.0 0.00 0.04 0.04 44 1011.3
20260505215043 59 320 0.0 0.0 0.00 0.04 0.04 42 1011.4
20260505214541 59 316 0.0 0.0 0.00 0.04 0.04 43 1011.5
20260505214038 59 315 1.0 1.0 0.00 0.04 0.04 43 1011.4
20260505213536 59 322 0.0 0.0 0.00 0.04 0.04 42 1011.4
20260505213032 59 316 0.0 0.0 0.00 0.04 0.04 43 1011.5
20260505212528 59 314 0.0 1.0 0.00 0.04 0.04 41 1011.5
20260505212026 59 314 0.0 0.0 0.00 0.04 0.04 42 1011.5
20260505211523 59 317 0.0 1.0 0.00 0.04 0.04 41 1011.6
20260505211019 59 311 0.0 0.0 0.00 0.04 0.04 42 1011.5
20260505210516 60 319 0.0 0.0 0.00 0.04 0.04 40 1011.9
20260505210013 60 322 1.0 1.0 0.00 0.04 0.04 42 1011.6
20260505205511 59 323 0.0 0.0 0.00 0.04 0.04 42 1011.3
20260505205008 59 314 1.0 1.0 0.00 0.04 0.04 43 1011.5
20260505204506 59 311 0.0 0.0 0.00 0.04 0.04 43 1011.6
20260505204003 59 323 0.0 0.0 0.00 0.04 0.04 41 1011.5
20260505203459 59 314 0.0 0.0 0.00 0.04 0.04 42 1011.8
20260505202955 59 319 0.0 0.0 0.00 0.04 0.04 43 1011.7
20260505202453 59 320 0.0 1.0 0.00 0.04 0.04 42 1011.8
20260505201948 59 323 0.0 0.0 0.00 0.04 0.04 43 1011.7
20260505201446 60 326 1.0 1.0 0.00 0.04 0.04 41 1011.8
20260505200943 60 310 0.0 0.0 0.00 0.04 0.04 41 1011.8
20260505200441 60 26 1.0 1.0 0.00 0.04 0.04 42 1011.8
20260505195936 61 311 0.0 0.0 0.00 0.04 0.04 39 1011.7
20260505195434 60 325 0.0 1.0 0.00 0.04 0.04 42 1011.9
20260505194931 61 323 0.0 0.0 0.00 0.04 0.04 41 1012.1
20260505194428 61 319 0.0 0.0 0.00 0.04 0.04 40 1012.1
20260505193928 59 308 0.0 0.0 0.00 0.04 0.04 45 1012.0
20260505193426 56 305 0.0 0.0 0.00 0.04 0.04 48 1012.1
20260505192924 56 290 1.0 1.0 0.00 0.04 0.04 47 1012.1
20260505192422 59 315 1.0 2.0 0.00 0.04 0.04 43 1012.0
20260505191919 59 324 0.0 0.0 0.00 0.04 0.04 45 1012.1
20260505191418 57 322 0.0 0.0 0.00 0.04 0.04 46 1012.3
20260505190914 59 301 3.0 3.0 0.00 0.04 0.04 44 1012.3
20260505190409 60 322 0.0 0.0 0.00 0.04 0.04 42 1012.3
20260505185905 59 319 0.0 0.0 0.00 0.04 0.04 44 1012.2
20260505185402 59 314 0.0 0.0 0.00 0.04 0.04 45 1012.2
20260505184858 58 310 0.0 0.0 0.00 0.04 0.04 48 1012.3
20260505184355 57 342 0.0 1.0 0.00 0.04 0.04 50 1012.3
20260505183852 56 305 1.0 1.0 0.00 0.04 0.04 53 1012.1
20260505183349 56 323 0.0 0.0 0.00 0.04 0.04 52 1012.0
20260505182846 55 316 0.0 0.0 0.00 0.04 0.04 54 1012.2
20260505182343 56 313 0.0 1.0 0.00 0.04 0.04 52 1011.9
20260505181839 56 318 0.0 0.0 0.00 0.04 0.04 51 1012.1
20260505181336 54 325 0.0 0.0 0.00 0.04 0.04 57 1012.0
20260505180833 53 348 0.0 1.0 0.00 0.04 0.04 54 1012.3
20260505180330 53 39 2.0 2.0 0.00 0.04 0.04 57 1012.4
20260505175826 53 279 1.0 1.0 0.00 0.04 0.04 56 1012.2
20260505175323 53 345 1.0 1.0 0.00 0.04 0.04 56 1012.3
20260505174819 54 338 1.0 2.0 0.00 0.04 0.04 55 1012.3
20260505174317 54 312 0.0 0.0 0.00 0.04 0.04 55 1012.4
20260505173812 53 325 0.0 1.0 0.00 0.04 0.04 61 1012.5
20260505173309 53 351 1.0 1.0 0.00 0.04 0.04 57 1012.6
20260505172806 53 1 1.0 2.0 0.00 0.04 0.04 55 1012.7
20260505172305 52 352 1.0 2.0 0.00 0.04 0.04 60 1012.5
20260505171758 53 285 0.0 0.0 0.00 0.04 0.04 64 1012.4
20260505171255 54 307 0.0 0.0 0.00 0.04 0.04 66 1012.7
20260505170752 54 300 0.0 0.0 0.00 0.04 0.04 69 1013.0
20260505170249 54 300 0.0 0.0 0.00 0.04 0.04 66 1012.9
20260505165750 53 301 0.0 0.0 0.00 0.04 0.04 71 1013.1
20260505165246 52 300 0.0 0.0 0.00 0.04 0.04 70 1013.4
20260505164742 52 312 0.0 0.0 0.00 0.04 0.04 69 1013.2
20260505164239 52 322 1.0 1.0 0.00 0.04 0.04 71 1013.0
20260505163737 52 297 0.0 1.0 0.00 0.04 0.04 69 1013.2
20260505163236 52 313 0.0 1.0 0.00 0.04 0.04 67 1013.3
20260505162732 52 298 0.0 0.0 0.00 0.04 0.04 70 1013.1
20260505162229 52 314 0.0 0.0 0.00 0.04 0.04 69 1013.0
20260505161726 52 314 0.0 0.0 0.00 0.04 0.04 72 1013.0
20260505161224 52 320 0.0 0.0 0.00 0.04 0.04 78 1012.9
20260505160721 51 312 0.0 0.0 0.00 0.04 0.04 73 1012.4
20260505160219 51 137 2.0 3.0 0.00 0.04 0.04 72 1012.3
20260505153158 51 313 0.0 0.0 0.00 0.04 0.04 76 1012.7
20260505152654 51 291 0.0 0.0 0.00 0.04 0.04 75 1012.4
20260505152150 51 291 0.0 0.0 0.00 0.04 0.04 74 1012.4
20260505151646 51 290 0.0 0.0 0.00 0.04 0.04 72 1012.5
20260505151143 51 291 0.0 0.0 0.00 0.04 0.04 78 1012.3
20260505150639 50 291 0.0 0.0 0.00 0.04 0.04 76 1012.2
20260505150137 50 291 0.0 0.0 0.00 0.04 0.04 76 1012.1
20260505140605 50 313 0.0 0.0 0.00 0.02 0.02 77 1012.5
20260505125019 52 321 0.0 0.0 0.00 0.01 0.01 58 1010.3
20260505124515 52 315 0.0 0.0 0.00 0.01 0.01 55 1010.3
20260505124012 52 29 2.0 2.0 0.00 0.01 0.01 54 1010.3
20260505123508 52 315 0.0 1.0 0.00 0.01 0.01 53 1010.5
20260505123004 52 354 1.0 1.0 0.00 0.01 0.01 52 1010.5
20260505122501 52 320 0.0 0.0 0.00 0.01 0.01 53 1010.4
20260505121958 52 314 0.0 0.0 0.00 0.01 0.01 53 1010.1
20260505121455 52 348 2.0 2.0 0.00 0.01 0.01 53 1010.2
20260505120951 52 9 2.0 3.0 0.00 0.01 0.01 53 1010.0
20260505120447 52 321 0.0 0.0 0.00 0.01 0.01 54 1010.0
20260505115947 52 328 0.0 0.0 0.00 0.01 0.01 54 1009.9
20260505115443 52 280 1.0 1.0 0.00 0.01 0.01 54 1009.8
20260505114942 52 49 1.0 1.0 0.00 0.01 0.01 54 1009.7
20260505114437 52 67 2.0 2.0 0.00 0.01 0.01 53 1009.7
20260505113934 52 336 1.0 2.0 0.00 0.01 0.01 53 1009.6
20260505113430 52 58 2.0 2.0 0.00 0.01 0.01 52 1009.9
20260505112926 52 337 1.0 2.0 0.00 0.01 0.01 53 1009.9
20260505112424 52 325 1.0 2.0 0.00 0.01 0.01 53 1010.3
20260505111920 52 321 0.0 0.0 0.00 0.01 0.01 54 1010.1
20260505111415 52 348 3.0 7.0 0.00 0.01 0.01 53 1010.3
20260505110911 52 329 0.0 1.0 0.00 0.01 0.01 53 1010.3
20260505110408 52 309 1.0 3.0 0.00 0.01 0.01 54 1010.5
20260505101839 53 316 0.0 1.0 0.00 0.01 0.01 53 1010.3
20260505101334 53 313 0.0 0.0 0.00 0.01 0.01 52 1010.6
20260505100830 53 314 0.0 0.0 0.00 0.01 0.01 52 1010.4
20260505100327 53 302 0.0 1.0 0.00 0.01 0.01 52 1010.4
20260505095822 53 301 1.0 2.0 0.00 0.01 0.01 51 1010.5
20260505095320 53 320 1.0 1.0 0.00 0.01 0.01 52 1010.2
20260505094816 53 308 1.0 2.0 0.00 0.01 0.01 52 1010.3
20260505094313 53 309 1.0 1.0 0.00 0.01 0.01 52 1010.0
20260505093808 53 315 3.0 6.0 0.00 0.01 0.01 50 1010.1
20260505093307 53 335 3.0 4.0 0.00 0.01 0.01 55 1010.1
20260505092803 53 36 3.0 4.0 0.00 0.01 0.01 55 1010.1
20260505092304 52 317 0.0 0.0 0.00 0.01 0.01 59 1010.2
20260505091758 52 39 1.0 4.0 0.00 0.01 0.01 61 1010.2
20260505091256 52 312 0.0 0.0 0.00 0.01 0.01 64 1010.0
20260505090754 52 324 0.0 0.0 0.07 0.01 0.01 68 1009.9
20260505090252 53 323 0.0 0.0 0.07 0.01 0.01 65 1009.8
20260505085749 53 323 0.0 0.0 0.00 0.00 0.00 62 1009.8
20260505085247 53 323 0.0 0.0 0.00 0.00 0.00 61 1009.9
20260505084744 54 324 0.0 0.0 0.00 0.00 0.00 57 1010.0
20260505084244 54 329 0.0 1.0 0.00 0.00 0.00 55 1009.7
20260505083740 54 322 0.0 0.0 0.00 0.00 0.00 52 1009.5
20260505083237 54 315 0.0 1.0 0.00 0.00 0.00 55 1009.5
20260505082732 54 317 0.0 0.0 0.00 0.00 0.00 53 1009.6
20260505082230 54 313 0.0 0.0 0.00 0.00 0.00 54 1010.0
20260505081725 54 298 0.0 0.0 0.00 0.00 0.00 53 1009.6
20260505081223 55 319 0.0 0.0 0.00 0.00 0.00 54 1008.9
20260505080720 55 8 2.0 4.0 0.00 0.00 0.00 51 1008.5
20260505080216 56 306 0.0 1.0 0.00 0.00 0.00 49 1008.3
20260505075712 57 317 2.0 2.0 0.00 0.00 0.00 45 1008.2
20260505075209 57 337 1.0 2.0 0.00 0.00 0.00 41 1008.2
20260505074706 57 1 2.0 3.0 0.00 0.00 0.00 42 1008.2
20260505074203 57 296 0.0 1.0 0.00 0.00 0.00 41 1008.1
20260505073701 57 323 1.0 2.0 0.00 0.00 0.00 41 1008.0
20260505073159 57 306 1.0 2.0 0.00 0.00 0.00 41 1008.0
20260505072654 57 316 2.0 3.0 0.00 0.00 0.00 41 1007.8
20260505072151 57 314 1.0 2.0 0.00 0.00 0.00 40 1007.6
20260505071646 57 269 5.0 6.0 0.00 0.00 0.00 40 1007.6
20260505071144 58 301 0.0 1.0 0.00 0.00 0.00 40 1007.7
20260505070641 58 317 0.0 1.0 0.00 0.00 0.00 40 1007.7
20260505070137 58 308 4.0 7.0 0.00 0.00 0.00 39 1008.0
20260505065633 58 1 4.0 7.0 0.00 0.00 0.00 39 1008.0
20260505065130 58 310 3.0 4.0 0.00 0.00 0.00 39 1008.2
20260505064627 58 329 4.0 6.0 0.00 0.00 0.00 39 1008.2
20260505064125 58 318 4.0 7.0 0.00 0.00 0.00 39 1008.0
20260505063623 59 292 2.0 4.0 0.00 0.00 0.00 38 1007.7
20260505063118 59 296 4.0 6.0 0.00 0.00 0.00 38 1008.0
20260505062615 59 334 0.0 1.0 0.00 0.00 0.00 38 1008.3
20260505062112 59 308 2.0 3.0 0.00 0.00 0.00 38 1008.3
20260505061609 59 324 1.0 2.0 0.00 0.00 0.00 38 1008.5
20260505061108 59 321 0.0 1.0 0.00 0.00 0.00 38 1008.2
20260505060605 60 346 1.0 1.0 0.00 0.00 0.00 38 1008.3
20260505055556 60 315 1.0 2.0 0.00 0.00 0.00 38 1007.6
20260505055053 60 304 2.0 3.0 0.00 0.00 0.00 37 1007.5
20260505054551 60 6 1.0 2.0 0.00 0.00 0.00 37 1007.4
20260505054049 60 299 5.0 8.0 0.00 0.00 0.00 36 1007.1
20260505053545 60 28 4.0 8.0 0.00 0.00 0.00 37 1006.9
20260505053042 60 280 2.0 3.0 0.00 0.00 0.00 37 1006.5
20260505052539 60 317 3.0 3.0 0.00 0.00 0.00 36 1006.6
20260505052037 61 32 3.0 4.0 0.00 0.00 0.00 36 1006.8
20260505051533 61 319 4.0 8.0 0.00 0.00 0.00 36 1006.4
20260505051032 61 32 2.0 2.0 0.00 0.00 0.00 36 1006.2
20260505050529 62 302 2.0 2.0 0.00 0.00 0.00 36 1006.1
20260505041457 66 30 3.0 6.0 0.00 0.05 0.05 33 1004.4
20260505040954 66 344 3.0 8.0 0.00 0.05 0.05 34 1004.3
20260505040452 67 347 4.0 9.0 0.00 0.05 0.05 33 1004.3
20260505035948 67 317 1.0 2.0 0.00 0.05 0.05 33 1004.5
20260505035444 67 2 4.0 7.0 0.00 0.05 0.05 34 1004.3
20260505034942 68 299 3.0 7.0 0.00 0.05 0.05 35 1004.3
20260505034438 68 313 2.0 4.0 0.00 0.05 0.05 34 1004.3
20260505033936 69 300 2.0 4.0 0.00 0.05 0.05 33 1004.3